Location: Tanglewood
(30.5380°N, 91.0751°W)
Time: 05:54:39
(UTC+00:00)

LightSail 2 - Visible Passes

Search period start: 17 November 2019 00:00
Search period end: 27 November 2019 00:00
Orbit: 701 x 726 km, 24.0° (Epoch: 15 November)

Date Brightness Start Highest point End Pass type
(mag) Time Alt. Az. Time Alt. Az. Time Alt. Az.
17 Nov 7.5 09:40:09 19° SE 09:40:09 19° SE 09:41:49 10° ESE visible
17 Nov 6.6 11:19:08 16° WSW 11:22:09 27° SSW 11:26:29 10° SE visible
18 Nov 6.4 10:24:51 30° S 10:24:51 30° S 10:28:54 10° SE visible
18 Nov 7.3 12:06:27 10° SW 12:09:22 15° SSW 12:12:18 10° SSE visible
19 Nov 7.9 09:30:33 13° SE 09:30:33 13° SE 09:31:12 10° ESE visible
19 Nov 6.9 11:09:32 16° SW 11:11:36 19° SSW 11:15:14 10° SSE visible
20 Nov 7.0 10:15:15 21° S 10:15:15 21° S 10:17:53 10° SE visible
21 Nov 7.3 10:59:57 12° SW 11:00:57 13° SSW 11:03:08 10° S visible
22 Nov 7.6 10:05:39 12° SSE 10:05:39 12° SSE 10:06:22 10° SSE visible
26 Nov 7.4 00:54:52 10° S 00:56:20 11° SSE 00:56:20 11° SSE visible
